Regional Weather Roundup
Issued by NWS Little Rock, AR

Home | Current Version | Previous Version | Graphics & Text | Print | Product List | Glossary On
Versions: 1 2 3 4 5 6 7 8 9 10 11 12 13 14 15 16 17 18 19 20 21 22 23 24 25 26 27 28 29 30 31
000
ASUS44 KLZK 070105
RWRLZK

WEATHER ROUNDUP FOR ARKANSAS
NATIONAL WEATHER SERVICE LITTLE ROCK AR
700 PM CST TUE DEC 06 2016

NOTE: "FAIR" INDICATES FEW OR NO CLOUDS BELOW 12,000 FEET WITH NO
SIGNIFICANT WEATHER AND/OR OBSTRUCTIONS TO VISIBILITY.

ARZ001-003-010-029-070200-
NORTHWEST ARKANSAS

CITY           SKY/WX    TMP DP  RH WIND       PRES   REMARKS
FAYETTEVILLE   CLOUDY    38  28  67 CALM      30.10R
FORT SMITH     PTCLDY    44  34  67 NW8       30.08R
HARRISON       PTCLDY    38  31  76 NW3       30.07R
BENTONVILLE    CLOUDY    37  19  48 N6        30.11R
ROGERS         CLOUDY    36  25  64 N5        30.10R
SILOAM SPGS    CLOUDY    36  25  64 N7        30.10R
HIGHFILL       CLOUDY    37  27  67 CALM      30.10R
SPRINGDALE     PTCLDY    37  27  65 N5        30.11R
$$

ARZ004-005-016-070200-
NORTH CENTRAL ARKANSAS

CITY           SKY/WX    TMP DP  RH WIND       PRES   REMARKS
BATESVILLE     CLOUDY    43  36  75 NW8       30.07S
FLIPPIN        CLOUDY    43  27  52 NW8       30.06R
MTN HOME       CLOUDY    38  34  85 CALM      30.07R
$$

ARZ040-041-070200-
WEST CENTRAL ARKANSAS

CITY           SKY/WX    TMP DP  RH WIND       PRES   REMARKS
MENA           CLOUDY    46  45  93 CALM      30.06R
MOUNT IDA      CLOUDY    43  41  93 W3        30.01R
$$

ARZ009-017-025-026-028-070200-
NORTHEAST ARKANSAS

CITY           SKY/WX    TMP DP  RH WIND       PRES   REMARKS
CORNING        CLOUDY    41  36  81 N6        30.09R
JONESBORO      CLEAR     44  37  76 NW7       30.06R
NEWPORT        CLEAR     42  38  85 N10       30.07R
WALNUT RIDGE   PTCLDY    41  32  70 N13       30.08R
BLYTHEVILLE    CLEAR     43  39  86 NE6       30.06R
$$

ARZ022-023-033-042-044-070200-
CENTRAL ARKANSAS

CITY           SKY/WX    TMP DP  RH WIND       PRES   REMARKS
LITTLE ROCK    PTCLDY    44  40  85 N10       30.03S
N LITTLE ROCK    N/A     44  40  83 N5        30.05R
JACKSONVILLE   CLEAR     45  41  84 NW2       30.03R
SEARCY         CLEAR     45  39  79 N8        30.06R
HOT SPRINGS    CLEAR     44  41  89 CALM      30.03R
RUSSELLVILLE   PTCLDY    44  37  76 N6        30.06R
CLINTON        FAIR      45  37  76 CALM      30.07R
$$

ARZ036-070200-
EAST ARKANSAS

CITY           SKY/WX    TMP DP  RH WIND       PRES   REMARKS
WEST MEMPHIS   CLEAR     41  39  93 CALM      30.02R
$$

ARZ050-053-066-070-073-070200-
SOUTHWEST ARKANSAS

CITY           SKY/WX    TMP DP  RH WIND       PRES   REMARKS
ARKADELPHIA    FAIR      44  43  96 CALM      30.03S FOG
CAMDEN         CLOUDY    48  45  87 CALM      30.03S
TEXARKANA      CLOUDY    48  46  93 CALM      30.04R
EL DORADO      CLOUDY    49  47  93 CALM      30.04R
DE QUEEN       CLOUDY    51  44  77 CALM      30.03R
$$

ARZ056-057-069-070200-
SOUTHEAST ARKANSAS

CITY           SKY/WX    TMP DP  RH WIND       PRES   REMARKS
PINE BLUFF     MOCLDY    45  43  93 S3        30.03R
STUTTGART      MOCLDY    45  37  76 N7        30.02F
MONTICELLO     CLEAR     45  43  93 CALM      30.02S

$$






USA.gov is the U.S. government's official web portal to all federal, state and local government web resources and services.